User: anonymous   Login
Location: Melbourne
(37.8170°S, 144.9670°E)
Time: 17:55:52
(UTC+10:00)
Language:

Cosmos 962 Rocket - Orbit

View from above orbital plane
View from above orbital plane
View from above satellite
View from above satellite

Ground track
Ground track

The orbit data is extracted from the following two-line orbital elements,

1 10461U 77107B   15107.46326424  .00000049  00000-0  34254-4 0  9994
2 10461 082.9488 241.1280 0033007 201.5539 192.0021 13.76723695881831
Epoch (UTC): 17 April 2015 11:07:06
Eccentricity: 0.0033007
inclination: 82.9488°
perigee height: 951 km
apogee height: 1000 km
right ascension of ascending node: 241.1280°
argument of perigee: 201.5539°
revolutions per day: 13.76723695
mean anomaly at epoch: 192.0021°
orbit number at epoch: 88183

The dashed part of the orbit path shows where the satellite is in the earth's shadow,  

DLR